Location: Newark
(44.6028°N, 124.0883°W)
Time: 02:24:05
(UTC+00:00)

Vanguard 1 - Pass Details

Date: 24 October 2019
Orbit: 652 x 3831 km, 34.2° (Epoch: 18 November)

Event Time Altitude Azimuth Distance (km) Brightness Sun altitude
Rises 06:31:03 0° 270° (W) 4,827 13.9 -51.9°
Reaches altitude 10° 06:33:53 10° 263° (W) 4,179 13.4 -52.2°
Enters shadow 06:36:55 22° 252° (WSW) 3,644 12.9 -52.5°
Maximum altitude 06:45:00 43° 197° (SSW) 3,395 - -53.3°
Drops below altitude 10° 07:03:11 10° 136° (SE) 6,653 - -54.8°
Sets 07:09:18 0° 130° (SE) 7,885 - -55.3°
